Home   Weather   Mistelbach   Past weeks

Flag for Austria Past Weather in Mistelbach, Lower Austria, Austria — Yesterday and Last 2 Weeks

Now
25 °F

Sunny.


Feels Like: 25 °F
Forecast: 11 / 23 °F
Wind: 2 mph from East

Location: Wien / Hohe Warte

Current Time: Jan 20, 2017 at 3:15:14 pm

Latest Report: Jan 20, 2017 at 2:00 pm


Visibility: 3 mi

Pressure: 30.63 "Hg

Humidity: 72%

Dew Point: 17 °F

Location of MistelbachLocation

Past Weather in Mistelbach — Graph

°F

Mistelbach Temperature Yesterday

Maximum temperature yesterday: 26 °F (at 2:00 pm)
Minimum temperature yesterday: 17 °F (at 7:00 am)
Average temperature yesterday: 20 °F

High & Low Weather Summary for the Past Weeks

 TemperatureHumidityPressure
High44 °F (Jan 12, 1:00 pm)92% (Jan 8, 6:00 am)30.71 "Hg (Jan 8, 6:00 am)
Low10 °F (Jan 11, 7:00 am)41% (Jan 7, 2:00 pm)29.41 "Hg (Jan 13, 6:00 am)
Average26 °F73%30.25 "Hg
* Reported Jan 5 1:00 pm — Jan 20 1:00 pm, Mistelbach, Weather by CustomWeather, © 2017

Note: Actual official high and low records may vary slightly from our data, if they occured in-between our weather recording intervals... More about our weather records

Advertising

Mistelbach Weather History for the Previous 24 Hours

Scroll right to see more
 ConditionsComfort  
Time TempWeatherWind HumidityBarometerVisibility
1:00 pm
Fri, Jan 20
23 °FSunny.3 mph76%30.65 "Hg3 mi
12:00 pm22 °FSunny.3 mph80%30.66 "Hg2 mi
11:00 am20 °FFog.1 mph85%30.68 "Hg2 mi
10:00 am18 °FFog.1 mph87%30.70 "Hg2 mi
9:00 am15 °FFog.No wind90%30.70 "Hg2 mi
8:00 am13 °FFog.1 mph90%30.69 "Hg2 mi
7:00 am14 °FFog.2 mph91%30.69 "Hg2 mi
6:00 am14 °FFog.2 mph91%30.68 "Hg2 mi
5:00 am15 °FCold.1 mph91%30.68 "HgN/A
4:00 am15 °FCold.1 mph91%30.69 "HgN/A
3:00 am16 °FCold.1 mph89%30.69 "HgN/A
2:00 am16 °FCold.1 mph91%30.69 "HgN/A
1:00 am17 °FFog.No wind91%30.69 "Hg3 mi
12:00 am17 °FCold.No wind89%30.70 "HgN/A
11:00 pm
Thu, Jan 19
18 °FCold.No wind88%30.70 "HgN/A
10:00 pm18 °FClear.2 mph87%30.70 "Hg4 mi
9:00 pm19 °FClear.1 mph85%30.69 "Hg4 mi
8:00 pm20 °FClear.2 mph83%30.68 "Hg6 mi
7:00 pm22 °FClear.1 mph80%30.68 "Hg6 mi
6:00 pm22 °FCold.1 mph78%30.67 "HgN/A
5:00 pm24 °FClear.2 mph75%30.67 "Hg5 mi
4:00 pm25 °FChilly.2 mph71%30.66 "HgN/A
3:00 pm25 °FChilly.2 mph69%30.66 "HgN/A
Weather by CustomWeather, © 2017

See weather overviewHow to use our weather pages